QPF
0.00 0.00 0.00 -0.00 0.00 0.00 0.00 0.00 0.00 0.00 0.00 0.00 0.00 0.00 0.00 0.00 0.00 0.00 -0.00 0.00 -0.00 -0.00 0.00 0.00 -0.00 0.00 0.00 -0.00 -0.00 0.00 0.00 0.00 0.00 -0.00 0.00 -0.00 0.00 0.00 0.00 -0.00 0.00 0.00
0.00 0.00 0.00 0.00 0.00 0.00 0.00 0.00 0.00 -0.00 0.00 0.00 -0.00 0.00 0.00 0.00 0.00 0.00 0.00 0.00 0.00 -0.00 0.00 0.00 0.00 0.00 0.00 0.00 -0.00 0.00 0.00 0.00 0.00 0.00 0.00 0.00 0.00 0.00 -0.00 -0.00 0.00 0.00
0.00 0.00 0.00 0.00 0.00 0.00 -0.00 0.00 -0.00 -0.00 -0.00 0.00 0.00 0.00 0.00 0.00 0.00 0.00 -0.00 0.00 0.00 0.00 0.00 -0.00 0.00 0.00 0.00 -0.00 -0.00 0.00 0.00 0.00 0.00 0.00 0.00 0.00 -0.00 0.00 0.00 -0.00 0.00 0.00
0.00 0.00 -0.00 0.00 0.00 -0.00 -0.00 0.00 0.00 0.00 0.00 0.00 0.00 0.00 -0.00 -0.00 -0.00 0.00 0.00 0.00 0.00 0.00 0.00 0.00 0.00 -0.00 0.00 0.00 0.00 0.00 0.00 0.00 0.00 -0.00 0.00 0.00 0.00 0.00 0.00 0.00 0.00 0.00
0.00 0.00 0.00 0.00 0.00 -0.00 0.00 0.00 -0.00 0.00 0.00 -0.00 0.00 -0.00 -0.00 0.00 0.00 -0.00 0.00 0.00 0.00 -0.00 0.00 -0.00 0.00 -0.00 0.00 -0.00 0.00 0.00 -0.00 0.00 0.00 0.00 0.00 0.00 -0.00 -0.00 -0.00 0.00 0.00 0.00
-0.00 0.00 0.00 0.00 0.00 -0.00 -0.00 0.00 0.00 -0.00 0.00 0.00 -0.00 0.00 0.00 0.00 0.00 0.00 0.00 0.00 0.00 0.00 0.00 -0.00 -0.00 0.00 -0.00 0.00 0.00 -0.00 0.00 -0.00 0.00 0.00 -0.00 0.00 0.00 0.00 0.00 0.00 0.00 0.00
0.00 0.00 0.00 0.00 0.00 0.00 0.00 0.00 0.00 0.00 -0.00 0.00 0.00 0.00 0.00 -0.00 0.00 0.00 0.00 0.00 -0.00 0.00 0.00 0.00 0.00 0.00 -0.00 0.00 0.00 -0.00 0.00 0.00 -0.00 0.00 -0.00 0.00 0.00 0.00 0.00 -0.00 0.00 0.00
0.00 0.00 0.00 0.00 0.00 0.00 0.00 0.00 -0.00 0.00 -0.00 0.00 0.00 0.00 0.00 -0.00 0.00 -0.00 0.00 0.00 0.00 0.00 0.00 0.00 0.00 0.00 0.00 -0.00 0.00 0.00 -0.00 0.00 0.00 0.00 -0.00 0.00 -0.00 -0.00 0.00 0.00 -0.00 0.00
0.00 0.00 -0.00 0.00 0.00 0.00 0.00 0.00 0.00 0.00 0.00 0.00 -0.00 0.00 0.00 0.00 0.00 0.00 -0.00 0.00 0.00 0.00 0.00 0.00 0.00 0.00 0.00 -0.00 0.00 -0.00 0.00 -0.00 0.00 0.00 0.00 0.00 0.00 0.00 -0.00 0.00 0.00 -0.00
0.00 0.00 -0.00 0.00 0.00 0.00 0.00 0.00 0.00 0.00 0.00 0.00 0.00 -0.00 0.00 0.00 -0.00 0.00 0.00 -0.00 0.00 -0.00 0.00 -0.00 0.00 -0.00 0.00 0.00 0.00 0.00 0.00 0.00 0.00 0.00 0.00 0.00 -0.00 0.00 0.00 0.00 0.00 -0.00
0.00 0.00 -0.00 0.00 0.00 0.00 0.00 0.00 0.00 -0.00 0.00 0.00 0.00 0.00 0.00 0.00 0.00 0.00 0.00 0.00 0.00 -0.00 0.00 -0.00 0.00 0.00 0.00 0.00 0.00 0.00 0.00 0.00 -0.00 0.00 -0.00 0.00 0.00 0.00 0.00 0.00 0.00 0.00
-0.00 0.00 0.00 0.00 0.00 0.00 0.00 -0.00 -0.00 0.00 0.00 0.00 0.00 -0.00 0.00 0.00 -0.00 0.00 -0.00 -0.00 0.00 0.00 0.00 0.00 0.00 0.00 0.00 0.00 -0.00 0.00 -0.00 0.00 0.00 0.00 0.00 -0.00 0.00 0.00 0.00 0.00 0.00 0.00
0.00 -0.00 0.00 0.00 0.00 -0.00 0.00 -0.00 0.00 0.00 0.00 0.00 0.00 0.00 0.00 0.00 -0.00 0.00 0.00 0.00 0.00 -0.00 -0.00 0.00 0.00 0.00 0.00 -0.00 0.00 0.00 0.00 0.00 0.00 -0.00 0.00 -0.00 -0.00 0.00 0.00 0.00 -0.00 0.00
0.00 0.00 -0.00 -0.00 -0.00 0.00 -0.00 0.00 0.00 0.00 0.00 0.00 -0.00 -0.00 0.00 -0.00 -0.00 0.00 0.00 0.00 -0.00 0.00 0.00 0.00 0.00 0.00 0.00 0.00 0.00 0.00 -0.00 0.00 0.00 0.00 -0.00 0.00 0.00 -0.00 0.00 0.00 0.00 -0.00
0.00 0.00 0.00 0.00 0.00 -0.00 0.00 0.00 0.00 0.00 -0.00 0.00 0.00 0.00 0.00 0.00 0.00 0.00 0.00 0.00 -0.00 -0.00 0.00 0.00 0.00 0.00 -0.00 0.00 -0.00 0.00 0.00 0.00 0.00 0.00 0.00 0.00 0.00 -0.00 -0.00 -0.00 0.00 0.00
0.00 0.00 0.00 -0.00 0.00 0.00 0.00 0.00 0.00 0.00 0.00 0.00 -0.00 0.00 0.00 0.00 -0.00 -0.00 0.00 0.00 -0.00 -0.00 0.00 0.00 0.00 0.00 0.00 0.00 0.00 0.00 0.00 0.00 0.00 0.00 -0.00 0.00 0.00 0.00 0.00 -0.00 -0.00 -0.00
0.18 0.03 -0.00 0.00 0.00 0.00 0.00 0.00 0.00 0.00 0.00 0.00 0.00 0.00 0.00 -0.00 0.00 0.00 0.00 -0.00 -0.00 0.00 0.00 -0.00 -0.00 -0.00 0.00 0.00 0.00 0.00 -0.00 0.00 -0.00 0.00 0.00 0.00 0.00 -0.00 -0.00 0.00 0.00 0.00
0.28 0.25 0.22 0.16 0.08 0.04 0.00 0.00 0.04 0.00 0.00 0.00 0.00 -0.00 -0.00 -0.00 -0.00 -0.00 -0.00 0.00 0.00 -0.00 -0.00 0.00 0.00 0.00 -0.00 0.00 0.00 0.00 -0.00 0.00 0.00 0.00 0.00 0.00 0.00 0.00 -0.00 0.00 0.00 0.00
0.23 0.26 0.29 0.40 0.40 0.23 0.08 0.01 0.07 0.03 0.07 0.04 0.04 0.01 0.00 0.00 -0.00 0.00 0.00 -0.00 0.00 0.00 0.00 0.00 0.00 -0.00 0.00 0.00 0.00 -0.00 -0.00 0.00 0.00 0.00 0.00 0.00 0.00 -0.00 -0.00 0.00 -0.00 0.00
0.25 0.29 0.36 0.35 0.41 0.46 0.74 0.50 0.23 0.27 0.06 0.02 0.00 0.00 0.01 0.00 0.00 0.00 0.00 0.00 0.00 0.00 -0.00 0.00 0.00 0.00 0.00 0.00 -0.00 0.00 0.00 0.00 0.00 -0.00 0.00 -0.00 0.00 0.00 -0.00 -0.00 0.00 0.00
0.45 0.37 0.41 0.41 0.35 0.33 0.44 0.29 0.16 0.04 0.14 0.12 0.19 0.04 0.00 0.01 0.00 0.00 0.00 0.00 -0.00 0.00 0.00 0.00 0.00 0.00 0.00 -0.00 0.00 0.00 0.00 0.00 0.00 0.00 0.00 0.00 -0.00 -0.00 0.00 -0.00 0.00 0.00
0.27 0.26 0.24 0.17 0.18 0.17 0.29 0.17 0.23 0.23 0.43 0.25 0.23 0.31 0.16 0.20 0.02 0.01 0.01 0.01 0.00 0.00 -0.00 -0.00 0.00 0.00 0.00 0.00 -0.00 0.00 0.00 0.00 -0.00 0.00 0.00 0.00 0.00 0.00 -0.00 0.00 0.00 0.00
0.23 0.17 0.23 0.15 0.16 0.16 0.16 0.12 0.08 0.15 0.35 0.27 0.14 0.07 0.03 0.12 0.12 0.09 0.03 0.02 0.02 0.01 0.00 0.00 0.00 0.00 0.00 0.00 0.00 0.00 0.00 0.00 0.00 0.00 0.00 -0.00 0.00 0.00 0.00 0.00 0.00 -0.00
0.38 0.26 0.18 0.17 0.13 0.10 0.07 0.09 0.03 0.03 0.04 0.05 0.02 0.07 0.15 0.18 0.19 0.17 0.03 0.03 0.02 0.02 0.03 0.02 0.01 0.00 0.00 0.00 0.00 0.00 0.00 0.00 -0.00 0.00 0.00 0.00 0.00 0.00 0.00 0.00 0.00 0.00
0.10 0.08 0.11 0.10 0.14 0.16 0.07 0.02 0.01 0.01 0.01 0.02 0.02 0.04 0.07 0.08 0.07 0.09 0.14 0.11 0.09 0.07 0.02 0.02 0.02 0.02 0.01 0.00 0.00 0.00 0.00 0.00 0.00 0.00 0.00 0.02 0.00 0.01 0.00 0.00 0.00 -0.00
0.20 0.16 0.04 0.03 0.03 0.03 0.03 0.02 0.01 0.01 0.00 0.00 0.00 0.02 0.03 0.03 0.03 0.04 0.04 0.05 0.06 0.14 0.20 0.46 0.55 0.31 0.17 0.01 0.01 0.01 0.00 0.00 0.00 0.00 0.00 0.01 0.04 0.01 0.04 0.02 0.02 0.00
MSLP
1016.94 1017.06 1017.34 1017.54 1017.70 1017.74 1017.98 1018.26 1018.34 1018.50 1018.62 1018.70 1018.94 1018.94 1018.94 1018.74 1018.70 1018.82 1018.86 1018.94 1019.02 1019.10 1019.18 1019.22 1019.26 1019.34 1019.30 1019.34 1019.34 1019.46 1019.54 1019.66 1019.66 1019.62 1019.66 1019.66 1019.78 1019.78 1019.86 1019.86 1019.82 1019.82
1016.90 1016.98 1017.06 1017.26 1017.50 1017.58 1017.70 1017.74 1017.98 1018.18 1018.38 1018.42 1018.46 1018.50 1018.54 1018.54 1018.58 1018.62 1018.78 1018.90 1018.94 1019.02 1019.02 1019.10 1019.14 1019.18 1019.26 1019.34 1019.38 1019.54 1019.58 1019.58 1019.66 1019.42 1019.66 1019.70 1019.66 1019.70 1019.74 1019.70 1019.74 1019.66
1016.78 1016.98 1017.10 1017.30 1017.42 1017.54 1017.58 1017.62 1017.74 1017.90 1018.06 1018.06 1018.10 1018.26 1018.38 1018.30 1018.46 1018.46 1018.54 1018.70 1018.86 1018.90 1018.98 1019.02 1019.14 1019.14 1019.18 1019.22 1019.34 1019.50 1019.58 1019.58 1019.66 1019.42 1019.54 1019.62 1019.54 1019.62 1019.58 1019.58 1019.62 1019.58
1016.58 1016.70 1016.90 1016.98 1017.06 1017.26 1017.34 1017.58 1017.70 1017.74 1017.78 1018.06 1018.14 1018.06 1018.10 1018.14 1018.22 1018.38 1018.46 1018.50 1018.70 1018.78 1018.78 1018.90 1019.02 1019.06 1019.14 1019.22 1019.34 1019.50 1019.50 1019.50 1019.42 1019.42 1019.54 1019.50 1019.46 1019.46 1019.50 1019.46 1019.54 1019.50
1016.42 1016.58 1016.66 1016.78 1016.82 1016.94 1017.10 1017.38 1017.54 1017.62 1017.74 1017.70 1017.78 1017.86 1018.02 1018.10 1018.22 1018.30 1018.42 1018.50 1018.50 1018.62 1018.70 1018.82 1018.82 1018.94 1019.02 1019.14 1019.26 1019.46 1019.50 1019.58 1019.46 1019.50 1019.62 1019.66 1019.46 1019.50 1019.42 1019.46 1019.58 1019.62
1016.22 1016.30 1016.42 1016.62 1016.74 1016.90 1017.10 1017.18 1017.18 1017.30 1017.42 1017.58 1017.62 1017.58 1017.74 1017.82 1018.02 1018.18 1018.30 1018.42 1018.42 1018.50 1018.62 1018.66 1018.78 1018.78 1018.86 1019.02 1019.14 1019.30 1019.38 1019.50 1019.42 1019.46 1019.62 1019.66 1019.54 1019.42 1019.46 1019.46 1019.58 1019.62
1016.14 1016.26 1016.38 1016.42 1016.62 1016.70 1016.90 1016.94 1016.94 1016.98 1017.10 1017.10 1017.22 1017.50 1017.46 1017.74 1017.86 1017.94 1018.06 1018.14 1018.26 1018.38 1018.46 1018.58 1018.66 1018.74 1018.70 1018.86 1019.02 1019.18 1019.22 1019.26 1019.26 1019.38 1019.54 1019.54 1019.54 1019.54 1019.42 1019.46 1019.50 1019.62
1015.86 1015.98 1016.14 1016.30 1016.50 1016.62 1016.78 1016.78 1016.82 1016.86 1016.86 1016.98 1017.22 1017.18 1017.26 1017.50 1017.62 1017.70 1017.78 1017.90 1018.10 1018.18 1018.26 1018.34 1018.42 1018.50 1018.54 1018.66 1018.90 1019.06 1019.10 1019.06 1019.18 1019.30 1019.42 1019.46 1019.46 1019.62 1019.46 1019.38 1019.38 1019.58
1015.58 1015.86 1016.02 1016.22 1016.42 1016.50 1016.66 1016.66 1016.66 1016.70 1016.70 1016.98 1017.06 1017.10 1017.10 1017.22 1017.34 1017.46 1017.54 1017.70 1017.86 1017.94 1018.06 1018.18 1018.22 1018.30 1018.30 1018.46 1018.66 1018.82 1018.94 1018.94 1018.90 1019.02 1019.22 1019.34 1019.42 1019.38 1019.30 1019.26 1019.46 1019.50
1015.50 1015.62 1015.90 1016.10 1016.30 1016.26 1016.42 1016.46 1016.46 1016.54 1016.58 1016.78 1016.82 1016.90 1017.10 1017.06 1017.06 1017.18 1017.34 1017.54 1017.74 1017.82 1017.90 1017.98 1018.06 1018.10 1018.18 1018.22 1018.38 1018.54 1018.70 1018.78 1018.74 1018.78 1018.86 1018.98 1019.06 1019.10 1019.06 1019.14 1019.22 1019.34
1015.34 1015.50 1015.78 1015.94 1016.02 1016.02 1016.14 1016.18 1016.26 1016.34 1016.42 1016.58 1016.66 1016.82 1016.82 1016.94 1017.02 1016.98 1017.22 1017.42 1017.62 1017.66 1017.74 1017.82 1017.86 1017.90 1018.02 1018.10 1018.14 1018.14 1018.30 1018.42 1018.54 1018.62 1018.66 1018.70 1018.74 1018.78 1018.78 1018.86 1018.90 1019.02
1015.18 1015.30 1015.50 1015.66 1015.74 1015.82 1015.86 1015.90 1015.98 1016.14 1016.26 1016.30 1016.38 1016.62 1016.66 1016.70 1016.86 1016.94 1017.06 1017.22 1017.26 1017.34 1017.42 1017.50 1017.54 1017.66 1017.78 1017.90 1017.94 1017.98 1018.06 1018.14 1018.22 1018.34 1018.38 1018.46 1018.50 1018.50 1018.50 1018.50 1018.62 1018.66
1015.02 1015.06 1015.14 1015.30 1015.42 1015.54 1015.58 1015.66 1015.78 1015.82 1015.98 1016.14 1016.10 1016.26 1016.46 1016.62 1016.66 1016.78 1016.74 1016.86 1016.98 1017.06 1017.22 1017.26 1017.38 1017.46 1017.62 1017.66 1017.70 1017.78 1017.86 1018.02 1018.10 1018.18 1018.22 1018.26 1018.22 1018.18 1018.18 1018.22 1018.26 1018.30
1014.70 1014.78 1014.94 1015.06 1015.14 1015.30 1015.42 1015.46 1015.54 1015.62 1015.70 1015.74 1015.86 1016.10 1016.18 1016.26 1016.46 1016.58 1016.50 1016.54 1016.66 1016.82 1016.86 1016.94 1017.14 1017.30 1017.38 1017.46 1017.50 1017.58 1017.74 1017.90 1017.94 1018.06 1018.14 1018.14 1018.06 1017.98 1017.94 1017.94 1017.94 1017.98
1014.54 1014.66 1014.70 1014.86 1014.98 1015.14 1015.26 1015.38 1015.42 1015.46 1015.50 1015.62 1015.74 1015.86 1015.86 1015.90 1015.98 1016.14 1016.38 1016.58 1016.54 1016.62 1016.74 1016.78 1017.02 1017.14 1017.14 1017.26 1017.42 1017.50 1017.50 1017.66 1017.74 1017.82 1017.90 1018.02 1018.02 1017.94 1017.82 1017.74 1017.74 1017.74
1014.70 1014.70 1014.70 1014.78 1014.98 1015.06 1015.14 1015.14 1015.22 1015.26 1015.38 1015.54 1015.62 1015.62 1015.66 1015.70 1015.86 1015.98 1016.22 1016.42 1016.58 1016.62 1016.62 1016.70 1016.82 1016.78 1016.78 1016.82 1016.90 1017.14 1017.34 1017.42 1017.50 1017.58 1017.66 1017.78 1017.90 1017.94 1017.82 1017.70 1017.62 1017.54
1014.58 1014.82 1015.06 1015.06 1014.86 1014.86 1014.90 1015.02 1015.10 1015.14 1015.26 1015.34 1015.38 1015.42 1015.54 1015.62 1015.74 1016.02 1016.10 1016.18 1016.34 1016.50 1016.62 1016.62 1016.54 1016.46 1016.46 1016.58 1016.74 1016.78 1016.98 1017.22 1017.38 1017.46 1017.46 1017.58 1017.70 1017.78 1017.82 1017.66 1017.46 1017.30
1014.66 1014.82 1014.94 1015.42 1015.74 1015.26 1014.98 1015.10 1015.26 1015.66 1015.78 1015.50 1015.26 1015.30 1015.34 1015.42 1015.66 1015.78 1015.82 1015.86 1015.98 1016.14 1016.30 1016.34 1016.30 1016.14 1016.22 1016.38 1016.50 1016.62 1016.70 1016.86 1017.02 1017.22 1017.30 1017.42 1017.46 1017.50 1017.46 1017.42 1017.38 1017.26
1014.58 1014.98 1015.26 1015.46 1016.30 1016.62 1015.70 1014.74 1014.94 1015.42 1016.14 1016.66 1016.54 1015.94 1015.46 1015.46 1015.54 1015.58 1015.66 1015.66 1015.74 1015.94 1016.02 1015.98 1016.02 1015.86 1015.98 1016.10 1016.26 1016.38 1016.50 1016.58 1016.78 1016.86 1017.06 1017.14 1017.18 1017.22 1017.22 1017.22 1017.18 1017.22
1014.50 1014.82 1015.10 1015.14 1015.34 1015.90 1016.54 1016.06 1014.90 1014.90 1015.46 1016.10 1016.50 1016.14 1016.10 1016.06 1015.86 1015.70 1015.66 1015.74 1015.78 1015.82 1015.82 1015.78 1015.82 1015.70 1015.82 1015.94 1016.06 1016.22 1016.34 1016.46 1016.54 1016.66 1016.74 1016.78 1016.82 1016.86 1016.90 1016.94 1016.94 1017.06
1014.70 1014.82 1014.98 1014.98 1014.90 1015.18 1015.94 1016.66 1016.14 1015.42 1015.66 1015.66 1015.90 1015.94 1015.66 1015.82 1016.26 1016.42 1016.22 1015.90 1015.78 1015.82 1015.98 1016.02 1015.86 1015.78 1015.86 1015.94 1016.06 1016.18 1016.34 1016.38 1016.42 1016.46 1016.54 1016.58 1016.54 1016.54 1016.62 1016.62 1016.58 1016.62
1014.62 1014.66 1014.70 1014.74 1014.90 1015.30 1015.78 1016.22 1016.54 1016.22 1015.58 1015.14 1015.34 1016.18 1016.50 1015.90 1015.66 1015.66 1015.74 1015.98 1016.02 1015.90 1015.86 1015.90 1015.78 1015.98 1016.14 1016.22 1016.30 1016.38 1016.46 1016.46 1016.46 1016.50 1016.50 1016.42 1016.34 1016.26 1016.22 1016.18 1016.18 1016.26
1014.90 1014.90 1014.94 1014.94 1015.02 1015.34 1015.66 1015.90 1016.26 1016.30 1015.66 1015.26 1015.90 1016.34 1016.46 1015.98 1015.62 1015.50 1015.26 1015.26 1015.38 1015.50 1015.62 1015.62 1015.58 1015.70 1015.90 1016.10 1016.22 1016.38 1016.50 1016.50 1016.46 1016.46 1016.46 1016.38 1016.18 1016.02 1015.98 1015.98 1016.02 1016.02
1015.14 1015.18 1015.26 1015.26 1015.26 1015.46 1015.66 1015.78 1015.66 1015.70 1015.66 1015.50 1015.90 1016.10 1016.06 1015.82 1015.50 1015.46 1015.46 1015.54 1015.66 1015.70 1015.58 1015.66 1015.54 1015.58 1015.74 1016.02 1016.30 1016.46 1016.54 1016.46 1016.34 1016.38 1016.34 1016.26 1016.10 1015.90 1015.94 1016.06 1015.94 1015.74
1015.10 1015.06 1015.10 1015.18 1015.26 1015.38 1015.54 1015.58 1015.50 1015.42 1015.38 1015.42 1015.66 1015.74 1015.74 1015.62 1015.50 1015.42 1015.34 1015.26 1015.22 1015.26 1015.22 1015.42 1015.66 1016.02 1016.30 1016.38 1016.34 1016.38 1016.42 1016.38 1016.34 1016.26 1016.30 1016.14 1016.02 1016.06 1015.98 1016.14 1016.18 1015.78
1015.34 1015.34 1015.26 1015.30 1015.30 1015.42 1015.50 1015.50 1015.34 1015.26 1015.30 1015.38 1015.42 1015.46 1015.54 1015.50 1015.46 1015.42 1015.46 1015.34 1015.18 1015.18 1015.30 1015.46 1015.86 1016.10 1016.22 1016.30 1016.34 1016.34 1016.34 1016.30 1016.06 1016.14 1016.14 1016.02 1015.98 1016.18 1016.58 1016.46 1016.22 1016.18
Thickness
5782 5780 5779 5779 5778 5777 5776 5775 5774 5773 5772 5772 5771 5772 5773 5774 5775 5775 5775 5774 5774 5774 5774 5773 5773 5773 5773 5774 5774 5774 5773 5773 5773 5774 5774 5774 5774 5774 5773 5774 5774 5774
5782 5781 5781 5779 5778 5778 5777 5777 5776 5775 5774 5774 5774 5774 5775 5775 5776 5776 5776 5775 5775 5775 5774 5774 5773 5774 5774 5775 5775 5774 5773 5773 5774 5774 5774 5774 5774 5774 5775 5775 5775 5776
5782 5782 5781 5780 5779 5778 5777 5778 5777 5777 5777 5776 5776 5776 5776 5777 5777 5777 5776 5776 5775 5775 5775 5774 5774 5774 5774 5775 5775 5773 5773 5773 5773 5775 5774 5774 5775 5775 5775 5776 5776 5777
5782 5782 5782 5781 5781 5780 5779 5779 5777 5777 5777 5776 5777 5777 5777 5778 5777 5777 5777 5777 5777 5776 5775 5775 5775 5775 5775 5775 5774 5773 5773 5774 5774 5775 5774 5774 5776 5775 5776 5776 5775 5776
5783 5783 5783 5782 5782 5782 5780 5780 5778 5778 5778 5777 5779 5779 5778 5778 5777 5777 5777 5776 5777 5776 5776 5776 5776 5776 5775 5775 5775 5774 5773 5774 5775 5775 5774 5774 5775 5775 5776 5776 5775 5775
5783 5783 5783 5783 5783 5782 5781 5781 5781 5780 5780 5779 5780 5780 5779 5779 5778 5778 5777 5777 5777 5777 5777 5776 5776 5776 5776 5776 5775 5774 5774 5774 5775 5775 5773 5773 5775 5775 5776 5775 5774 5774
5782 5782 5783 5782 5782 5782 5782 5782 5782 5782 5782 5782 5782 5781 5781 5780 5779 5779 5778 5778 5778 5778 5777 5777 5777 5777 5777 5776 5775 5775 5775 5775 5775 5775 5774 5774 5774 5774 5775 5775 5775 5774
5782 5782 5782 5782 5781 5781 5781 5782 5782 5782 5783 5782 5781 5781 5782 5781 5780 5780 5779 5779 5779 5778 5779 5778 5778 5778 5778 5778 5776 5775 5776 5775 5776 5775 5774 5775 5774 5774 5775 5776 5775 5774
5782 5782 5781 5780 5780 5780 5780 5781 5781 5782 5782 5781 5781 5782 5782 5782 5781 5781 5780 5780 5779 5779 5779 5779 5779 5779 5779 5779 5778 5777 5777 5777 5777 5776 5775 5775 5774 5774 5775 5776 5775 5774
5782 5781 5780 5779 5779 5779 5779 5780 5780 5781 5781 5781 5781 5782 5782 5782 5782 5782 5781 5780 5780 5780 5780 5779 5779 5780 5780 5780 5780 5779 5778 5778 5778 5778 5777 5776 5776 5776 5776 5776 5775 5775
5780 5780 5779 5778 5778 5779 5779 5780 5780 5781 5781 5781 5781 5781 5781 5781 5781 5782 5781 5780 5780 5780 5780 5780 5780 5781 5780 5780 5781 5781 5780 5780 5779 5779 5779 5778 5778 5778 5778 5778 5777 5776
5778 5779 5779 5778 5778 5778 5779 5780 5780 5781 5781 5781 5781 5781 5780 5781 5781 5781 5781 5780 5780 5781 5781 5781 5781 5781 5781 5781 5781 5781 5781 5780 5780 5779 5779 5779 5779 5780 5780 5780 5779 5779
5777 5778 5778 5778 5778 5778 5778 5779 5780 5780 5780 5781 5782 5781 5780 5781 5781 5780 5781 5781 5781 5781 5781 5781 5781 5781 5781 5781 5781 5781 5780 5780 5779 5779 5779 5779 5780 5781 5781 5781 5781 5780
5777 5777 5777 5777 5777 5778 5778 5778 5779 5779 5780 5781 5781 5781 5780 5781 5781 5781 5781 5781 5781 5781 5781 5782 5781 5780 5780 5780 5780 5780 5780 5779 5779 5778 5778 5778 5779 5780 5781 5781 5781 5782
5775 5775 5775 5775 5775 5775 5776 5777 5777 5778 5779 5780 5779 5780 5780 5780 5781 5780 5780 5780 5780 5780 5780 5781 5780 5780 5780 5779 5779 5779 5779 5779 5779 5778 5778 5778 5778 5779 5780 5781 5781 5782
5772 5772 5772 5772 5772 5773 5773 5775 5776 5776 5777 5777 5777 5778 5779 5779 5779 5779 5778 5777 5778 5778 5778 5779 5779 5779 5779 5780 5780 5779 5779 5778 5778 5778 5778 5777 5777 5778 5778 5779 5781 5781
5769 5769 5768 5768 5769 5771 5772 5772 5773 5774 5774 5775 5776 5776 5776 5777 5776 5776 5776 5776 5776 5776 5776 5777 5777 5779 5779 5779 5780 5779 5779 5778 5777 5776 5777 5777 5776 5776 5777 5778 5780 5780
5764 5763 5762 5760 5760 5763 5768 5771 5771 5769 5768 5769 5772 5774 5775 5775 5775 5774 5775 5776 5776 5776 5776 5776 5777 5778 5778 5778 5778 5778 5778 5777 5776 5775 5775 5775 5775 5776 5776 5777 5778 5779
5760 5758 5757 5756 5753 5754 5761 5768 5770 5766 5762 5761 5764 5768 5772 5773 5773 5774 5774 5774 5775 5775 5775 5777 5777 5778 5778 5777 5776 5776 5776 5775 5775 5775 5774 5774 5774 5775 5775 5776 5777 5776
5756 5755 5755 5755 5756 5754 5752 5756 5764 5766 5761 5757 5758 5763 5767 5767 5768 5769 5770 5771 5772 5772 5772 5774 5775 5776 5776 5775 5774 5774 5774 5774 5774 5774 5774 5774 5774 5774 5774 5774 5775 5775
5751 5753 5753 5755 5759 5757 5750 5747 5753 5758 5759 5759 5758 5760 5762 5764 5764 5764 5765 5767 5767 5768 5768 5769 5770 5771 5771 5770 5771 5771 5771 5771 5772 5772 5772 5773 5773 5774 5774 5774 5774 5774
5748 5750 5752 5753 5755 5754 5749 5744 5744 5749 5755 5760 5758 5754 5755 5760 5762 5763 5764 5765 5765 5767 5767 5767 5768 5768 5766 5766 5766 5766 5767 5768 5768 5769 5769 5770 5772 5773 5773 5774 5774 5774
5743 5744 5746 5748 5749 5748 5746 5744 5743 5745 5751 5756 5754 5749 5750 5755 5759 5760 5762 5762 5762 5764 5765 5766 5768 5768 5766 5765 5764 5763 5764 5764 5765 5765 5765 5767 5769 5771 5772 5772 5772 5772
5738 5739 5740 5742 5743 5742 5742 5743 5743 5744 5747 5749 5748 5746 5748 5752 5755 5757 5757 5758 5760 5761 5762 5764 5765 5765 5764 5762 5761 5761 5760 5761 5762 5762 5762 5764 5766 5768 5769 5769 5768 5769
5733 5735 5737 5738 5738 5737 5739 5741 5742 5743 5744 5745 5745 5745 5747 5749 5752 5754 5755 5756 5759 5760 5760 5760 5759 5758 5757 5756 5756 5757 5757 5758 5759 5759 5759 5761 5762 5763 5763 5763 5764 5764
5729 5730 5731 5733 5733 5733 5735 5737 5739 5741 5742 5742 5743 5744 5745 5746 5748 5750 5752 5753 5756 5757 5757 5755 5754 5753 5752 5752 5752 5752 5752 5754 5756 5757 5757 5758 5759 5758 5756 5755 5757 5758